Weather in Arsenovo

Russia / Kemerovo Oblast     54°48′12″N   86°52′39″E
temp.,
°C
wind,
m/s
gust,
m/s
humid.,
%
clouds,
%
prec.,
mm/h
press.,
hPa
HPBL,
m
19 april, mon
mon1901:00+3s51291100 2.9 1004424
04:00+3ssw41299100 4.4 1000572
07:00+1wsw81692100 5.1 10011087
10:00−6wnw91584100 0.3 10081199
13:00−5wnw71182100 0.6 10161372
16:00−5wnw5882100 0.3 10201373
19:00−6nw377710 0.4 1022677
22:00−14w129525 0.0 102441
20 april, tue
tue2001:00−16w119786 0.0 102544
04:00−17wsw119864 0.0 102641
07:00−16wsw119646 0.0 102767
10:00−8wnw357699 0.0 10271031
13:00−6wnw3571100 0.1 10261353
16:00−4nw356485 0.1 10251395
19:00−5nw247623 0.1 1026378
22:00−12s11885 0.0 102710
21 april, wed
wed2101:00−13sse21925 0.0 102711
04:00−13sse2294100 0.0 102619
07:00−8se2487100 0.0 1026110
10:00−3s3464100 0.0 10251138
13:00−1ssw1357100 0.0 10241494
16:000nne116371 0.1 10241162
19:00−1nne237752 0.1 1025229
22:00−8n24929 0.0 102757
22 april, thu
thu2201:00−10nne229649 0.0 102832
04:00−10nne25895 0.0 103080
07:00−8nne39855 0.0 1032184
10:00−1nne57715 0.0 1034828
13:00+1nne467299 0.1 10351291
16:00+2ne5771100 0.5 10361139
19:00+1nne497463 0.6 1039617
22:00−5nne25915 0.0 104196
23 april, fri
fri2301:00−6nne25945 0.0 104283
04:00−6n25945 0.0 104180
07:00−4nne39895 0.0 1042249
10:00+1ne58765 0.0 1041785
13:00+4ne687096 0.0 10391233
16:00+5ne596894 0.0 10381425
19:00+4ne41073100 0.0 1037448
22:00+1nne41180100 0.0 1037346